User: anonymous   Login
Location: Homewood
(41.1836°S, 175.9581°E)
Time: 20:16:16
(UTC+00:00)
Language:

COSMOS 2251 DEB - Orbit

View from above orbital plane
View from above orbital plane
View from above satellite
View from above satellite

Ground track
Ground track

The orbit data is extracted from the following two-line orbital elements,

1 34458U 93036TB  24262.87846656  .00072326  00000-0  71296-2 0  9998
2 34458  74.0166 177.0357 0007003 210.4264 261.4807 14.91603710822371
Epoch (UTC): 18 September 2024 21:04:59
Eccentricity: 0.0007003
inclination: 74.0166°
perigee height: 588 km
apogee height: 598 km
right ascension of ascending node: 177.0357°
argument of perigee: 210.4264°
revolutions per day: 14.91603710
mean anomaly at epoch: 261.4807°
orbit number at epoch: 82237

The dashed part of the orbit path shows where the satellite is in the earth's shadow,  

DLR